Terminal Aerodrome Forecast
Issued by NWS

Home | Current Version | Previous Version | Graphics & Text | Print | Product List | Glossary On
Versions: 1 2 3 4 5 6 7 8 9 10 11 12 13 14 15 16 17 18
948
FTUS42 KMHX 221729
TAFOAJ
TAF
KOAJ 221729Z 2218/2318 13008KT P6SM FEW050 BKN250
     FM231300 09012G23KT P6SM SCT025 OVC050
      AMD LTD TO CLD VIS AND WIND=

USA.gov is the U.S. government's official web portal to all federal, state and local government web resources and services.